Check out our new BloomSky Weather System.

Active alerts


No alerts


Thunder radar  blitzortung!


Rain radar more information rain snow radar


Visit our other weather sites:

Template documentation
and downloads

And another site



Weather Underground History page Text

Daily Summary for June 9, 2017 Units:  English    Metric   Both
« Previous Day
Next Day »
Daily Weekly Monthly Yearly Custom
  High: Low: Average:
Temperature: 81.7 °F 67.8 °F 72 °F
Dew Point: 70.0 °F 63.9 °F 66 °F
Humidity: 90 % 65 % 82 %
Wind Speed: 6.0 mph 0.0 mph 0.5 mph
Wind Gust: 9.0 mph - -
Wind:- - South
Pressure: 29.92 in 29.87 in -
Precipitation: 0.00 in    
Historical Graphs
 
 
Tabular Data for June 9, 2017
Time Temperature Dew Point Pressure Wind Wind Speed Wind Gust Humidity Rainfall Rate (Hourly)
00:04 73.4 °F 64.2 °F 29.88 in Calm   1.0 mph 73 % 0.00 in
00:09 73.6 °F 64.4 °F 29.88 in Calm   1.0 mph 73 % 0.00 in
00:14 73.6 °F 64.4 °F 29.88 in Calm   1.0 mph 73 % 0.00 in
00:19 73.6 °F 64.4 °F 29.88 in Calm   1.0 mph 73 % 0.00 in
00:24 73.6 °F 64.4 °F 29.88 in Calm   1.0 mph 73 % 0.00 in
00:27 73.6 °F 64.4 °F 29.88 in SE 1.0 mph 1.0 mph 73 % 0.00 in
00:32 73.8 °F 64.6 °F 29.88 in SSW 2.0 mph 2.0 mph 73 % 0.00 in
00:37 73.8 °F 64.9 °F 29.88 in South 1.0 mph 3.0 mph 74 % 0.00 in
00:42 73.6 °F 64.8 °F 29.88 in Calm   3.0 mph 74 % 0.00 in
00:47 73.6 °F 64.8 °F 29.88 in Calm   3.0 mph 74 % 0.00 in
01:05 73.2 °F 64.4 °F 29.88 in SSW 2.0 mph -999.0 mph 74 % 0.00 in
01:10 72.9 °F 64.4 °F 29.88 in Calm   2.0 mph 75 % 0.00 in
01:15 72.7 °F 64.8 °F 29.88 in Calm   2.0 mph 76 % 0.00 in
01:20 72.5 °F 64.6 °F 29.88 in Calm     76 % 0.00 in
01:25 72.3 °F 64.4 °F 29.88 in Calm     76 % 0.00 in
01:30 72.0 °F 64.4 °F 29.88 in Calm     77 % 0.00 in
01:35 71.6 °F 64.0 °F 29.88 in Calm     77 % 0.00 in
01:40 71.2 °F 64.0 °F 29.88 in Calm     78 % 0.00 in
01:45 71.1 °F 63.9 °F 29.88 in Calm     78 % 0.00 in
01:50 70.7 °F 63.9 °F 29.88 in Calm     79 % 0.00 in
01:55 70.7 °F 64.6 °F 29.88 in Calm     81 % 0.00 in
02:00 70.7 °F 64.6 °F 29.88 in Calm     81 % 0.00 in
02:05 70.9 °F 64.8 °F 29.88 in Calm     81 % 0.00 in
02:10 70.7 °F 64.6 °F 29.88 in Calm     81 % 0.00 in
02:15 70.5 °F 64.4 °F 29.88 in Calm   2.0 mph 81 % 0.00 in
02:20 70.3 °F 64.6 °F 29.88 in Calm   2.0 mph 82 % 0.00 in
02:25 70.3 °F 64.6 °F 29.88 in Calm   2.0 mph 82 % 0.00 in
02:30 70.3 °F 64.6 °F 29.88 in Calm     82 % 0.00 in
02:35 70.2 °F 64.4 °F 29.88 in Calm     82 % 0.00 in
02:40 70.0 °F 64.6 °F 29.88 in Calm     83 % 0.00 in
02:45 70.0 °F 64.9 °F 29.88 in Calm     84 % 0.00 in
02:50 69.8 °F 64.8 °F 29.88 in Calm     84 % 0.00 in
02:55 69.6 °F 64.6 °F 29.88 in Calm     84 % 0.00 in
03:00 69.4 °F 64.8 °F 29.87 in Calm     85 % 0.00 in
03:05 69.4 °F 64.8 °F 29.88 in Calm     85 % 0.00 in
03:10 69.4 °F 64.8 °F 29.87 in Calm     85 % 0.00 in
03:15 69.1 °F 64.4 °F 29.87 in Calm     85 % 0.00 in
03:20 69.1 °F 64.8 °F 29.87 in Calm     86 % 0.00 in
03:25 68.9 °F 64.9 °F 29.87 in Calm     87 % 0.00 in
03:30 68.9 °F 64.9 °F 29.87 in Calm     87 % 0.00 in
03:35 68.7 °F 64.4 °F 29.87 in Calm     86 % 0.00 in
03:40 68.7 °F 64.8 °F 29.87 in Calm     87 % 0.00 in
03:45 68.5 °F 64.6 °F 29.87 in Calm     87 % 0.00 in
03:50 68.5 °F 64.6 °F 29.87 in Calm     87 % 0.00 in
03:52 68.5 °F 64.8 °F 29.87 in Calm     88 % 0.00 in
03:57 68.5 °F 64.6 °F 29.87 in Calm     87 % 0.00 in
04:02 68.5 °F 64.8 °F 29.87 in Calm     88 % 0.00 in
04:07 68.5 °F 64.8 °F 29.87 in Calm     88 % 0.00 in
04:12 68.4 °F 64.6 °F 29.87 in Calm     88 % 0.00 in
04:17 68.4 °F 64.6 °F 29.87 in Calm     88 % 0.00 in
04:22 68.4 °F 64.6 °F 29.87 in Calm     88 % 0.00 in
04:27 68.2 °F 64.4 °F 29.87 in Calm     88 % 0.00 in
04:32 68.2 °F 64.4 °F 29.87 in Calm     88 % 0.00 in
04:37 68.2 °F 64.4 °F 29.88 in Calm     88 % 0.00 in
04:42 68.2 °F 64.8 °F 29.88 in Calm     89 % 0.00 in
04:47 68.2 °F 64.8 °F 29.88 in Calm     89 % 0.00 in
04:52 67.8 °F 64.2 °F 29.88 in Calm     88 % 0.00 in
04:57 67.8 °F 64.4 °F 29.88 in Calm     89 % 0.00 in
05:02 67.8 °F 64.4 °F 29.88 in Calm     89 % 0.00 in
05:07 68.0 °F 64.9 °F 29.88 in Calm     90 % 0.00 in
05:12 68.4 °F 64.9 °F 29.88 in Calm     89 % 0.00 in
05:17 68.4 °F 64.9 °F 29.88 in Calm     89 % 0.00 in
05:22 68.4 °F 64.9 °F 29.88 in Calm     89 % 0.00 in
05:27 68.4 °F 64.9 °F 29.88 in Calm     89 % 0.00 in
05:32 68.5 °F 65.1 °F 29.89 in Calm     89 % 0.00 in
05:37 68.5 °F 65.1 °F 29.88 in Calm     89 % 0.00 in
05:42 68.5 °F 65.1 °F 29.88 in Calm     89 % 0.00 in
05:47 68.5 °F 65.1 °F 29.88 in Calm     89 % 0.00 in
05:52 68.5 °F 65.1 °F 29.89 in Calm     89 % 0.00 in
05:57 68.5 °F 65.1 °F 29.89 in Calm     89 % 0.00 in
06:02 68.7 °F 65.3 °F 29.89 in Calm     89 % 0.00 in
06:07 68.7 °F 65.7 °F 29.89 in Calm     90 % 0.00 in
06:12 68.7 °F 65.7 °F 29.89 in Calm     90 % 0.00 in
06:17 68.7 °F 65.7 °F 29.89 in Calm     90 % 0.00 in
06:22 68.7 °F 65.7 °F 29.89 in Calm     90 % 0.00 in
06:27 68.7 °F 65.3 °F 29.89 in Calm     89 % 0.00 in
06:32 68.5 °F 65.1 °F 29.89 in Calm     89 % 0.00 in
06:37 68.5 °F 65.5 °F 29.89 in Calm     90 % 0.00 in
06:42 68.7 °F 65.7 °F 29.89 in Calm     90 % 0.00 in
06:47 68.7 °F 65.7 °F 29.89 in Calm     90 % 0.00 in
06:52 68.9 °F 65.8 °F 29.89 in Calm     90 % 0.00 in
06:57 69.1 °F 66.0 °F 29.88 in Calm     90 % 0.00 in
07:02 69.3 °F 66.2 °F 29.88 in Calm     90 % 0.00 in
07:07 69.4 °F 66.4 °F 29.89 in Calm     90 % 0.00 in
07:12 69.8 °F 66.7 °F 29.89 in Calm   1.0 mph 90 % 0.00 in
07:18 70.0 °F 66.6 °F 29.89 in Calm   1.0 mph 89 % 0.00 in
07:23 70.3 °F 66.9 °F 29.89 in Calm   1.0 mph 89 % 0.00 in
07:28 70.9 °F 67.5 °F 29.89 in Calm     89 % 0.00 in
07:29 70.9 °F 67.5 °F 29.89 in Calm     89 % 0.00 in
07:34 71.8 °F 68.0 °F 29.89 in Calm     88 % 0.00 in
07:39 72.5 °F 68.4 °F 29.89 in Calm   1.0 mph 87 % 0.00 in
07:44 73.2 °F 68.4 °F 29.90 in Calm   1.0 mph 85 % 0.00 in
07:49 73.9 °F 68.7 °F 29.90 in Calm   1.0 mph 84 % 0.00 in
07:54 74.7 °F 69.1 °F 29.90 in Calm   1.0 mph 83 % 0.00 in
07:59 75.4 °F 69.1 °F 29.90 in Calm   1.0 mph 81 % 0.00 in
08:04 75.6 °F 68.9 °F 29.90 in Calm   1.0 mph 80 % 0.00 in
08:09 75.9 °F 68.9 °F 29.90 in Calm   3.0 mph 79 % 0.00 in
08:14 76.3 °F 69.3 °F 29.90 in Calm   3.0 mph 79 % 0.00 in
08:19 76.6 °F 69.3 °F 29.90 in Calm   3.0 mph 78 % 0.00 in
08:24 76.8 °F 69.1 °F 29.90 in Calm   1.0 mph 77 % 0.00 in
08:29 77.5 °F 69.8 °F 29.90 in SE 1.0 mph 3.0 mph 77 % 0.00 in
08:34 77.5 °F 68.9 °F 29.91 in Calm   4.0 mph 75 % 0.00 in
08:39 77.7 °F 68.7 °F 29.91 in SSE 3.0 mph 4.0 mph 74 % 0.00 in
08:44 78.1 °F 69.4 °F 29.91 in SE 1.0 mph 5.0 mph 75 % 0.00 in
08:49 77.9 °F 68.5 °F 29.91 in SE 2.0 mph 5.0 mph 73 % 0.00 in
08:54 78.1 °F 69.1 °F 29.91 in Calm   5.0 mph 74 % 0.00 in
08:59 78.4 °F 69.8 °F 29.91 in South 1.0 mph 5.0 mph 75 % 0.00 in
09:04 78.4 °F 69.4 °F 29.91 in South 3.0 mph 5.0 mph 74 % 0.00 in
09:09 78.4 °F 69.4 °F 29.91 in SSW 1.0 mph 4.0 mph 74 % 0.00 in
09:14 78.6 °F 70.0 °F 29.91 in Calm   4.0 mph 75 % 0.00 in
09:19 79.0 °F 69.3 °F 29.91 in ESE 3.0 mph 5.0 mph 72 % 0.00 in
09:24 79.2 °F 68.9 °F 29.91 in SSE 2.0 mph 6.0 mph 71 % 0.00 in
09:29 79.9 °F 70.0 °F 29.91 in SE 3.0 mph 6.0 mph 72 % 0.00 in
09:34 80.1 °F 68.9 °F 29.92 in SSW 4.0 mph 6.0 mph 69 % 0.00 in
09:39 80.2 °F 69.1 °F 29.91 in SSW 4.0 mph 8.0 mph 69 % 0.00 in
09:45 81.0 °F 69.4 °F 29.91 in SW 2.0 mph 8.0 mph 68 % 0.00 in
09:50 81.1 °F 69.1 °F 29.91 in SSE 4.0 mph 8.0 mph 67 % 0.00 in
09:55 81.3 °F 69.3 °F 29.91 in ESE 5.0 mph 7.0 mph 67 % 0.00 in
10:00 81.3 °F 68.4 °F 29.91 in SSW 6.0 mph 8.0 mph 65 % 0.00 in
10:05 81.5 °F 69.1 °F 29.91 in SSW 2.0 mph 8.0 mph 66 % 0.00 in
10:10 81.7 °F 69.3 °F 29.91 in SSW 5.0 mph 9.0 mph 66 % 0.00 in
Spring, Texas: Villages of Bridgestone
Compliments of Weather Underground - 2 mb

Script developed by  Jim McMurry - jmcmurry@mwt.net Adapted for the template by  Wim van der Kuil - Leuven-Template.eu

You find our weather info also at:

UK Metoffice

WeatherCloud

Weather Underground

Mid-South Weather Network

AWEKAS

Citizen Weather Observer Program (CWOP)

HAMweather, WeatherForYou, PWS Weather

Equipment we use:

Weather-station
Davis Vantage Vue

Weather-program
Meteohub

Weather-server
Debian 7.9 x86 (Guest)

Provider
DreamHost

Davis Vantage Vue

Meteohub

Debian 7.9 x86 (Guest)

DreamHost